K5SVV Weather Reports


Display with metric or nautical units.
time (UTC)temp
F
wind
direction
speed
MPH
gust
MPH
rain 1hr
in
rain 24hr
in
rain mn
in
humidity
%
barometer
mb
20260503025113 60 214 0.0 0.0 0.00 0.00 0.00 69 1019.1
20260503024609 61 214 0.0 0.0 0.00 0.00 0.00 70 1019.1
20260503024106 61 214 0.0 0.0 0.00 0.00 0.00 70 1019.3
20260503023604 61 214 0.0 0.0 0.00 0.00 0.00 69 1019.1
20260503023101 61 214 0.0 0.0 0.00 0.00 0.00 70 1019.0
20260503022556 61 214 0.0 0.0 0.00 0.00 0.00 70 1018.9
20260503022051 61 214 0.0 0.0 0.00 0.00 0.00 71 1018.9
20260503021548 62 214 0.0 0.0 0.00 0.00 0.00 70 1018.9
20260503021045 62 214 0.0 0.0 0.00 0.00 0.00 70 1019.1
20260503020542 62 214 0.0 0.0 0.00 0.00 0.00 70 1018.8
20260503020039 62 214 0.0 0.0 0.00 0.00 0.00 70 1018.4
20260503015536 63 213 0.0 0.0 0.00 0.00 0.00 69 1018.4
20260503015033 64 214 0.0 0.0 0.00 0.00 0.00 66 1018.3
20260503014529 64 214 0.0 0.0 0.00 0.00 0.00 64 1018.4
20260503014027 64 214 0.0 0.0 0.00 0.00 0.00 63 1018.6
20260503013524 65 213 0.0 0.0 0.00 0.00 0.00 62 1018.4
20260503013022 66 213 0.0 0.0 0.00 0.00 0.00 60 1018.4
20260503012519 66 213 0.0 0.0 0.00 0.00 0.00 60 1018.2
20260503012015 67 213 0.0 0.0 0.00 0.00 0.00 57 1018.3
20260503011512 68 214 0.0 0.0 0.00 0.00 0.00 54 1018.1
20260503011009 69 214 0.0 0.0 0.00 0.00 0.00 53 1018.5
20260503010505 69 214 0.0 0.0 0.00 0.00 0.00 51 1018.4
20260503010003 69 210 0.0 0.0 0.00 0.00 0.00 51 1018.2
20260503005500 70 209 0.0 0.0 0.00 0.00 0.00 50 1018.1
20260503004957 70 227 0.0 0.0 0.00 0.00 0.00 48 1018.2
20260503004453 70 227 0.0 0.0 0.00 0.00 0.00 52 1018.2
20260503003951 71 227 0.0 0.0 0.00 0.00 0.00 49 1018.3
20260503003447 71 227 0.0 0.0 0.00 0.00 0.00 48 1018.4
20260503002944 72 227 0.0 0.0 0.00 0.00 0.00 46 1018.5
20260503002442 72 227 0.0 0.0 0.00 0.00 0.00 46 1018.0
20260503001938 72 226 0.0 0.0 0.00 0.00 0.00 44 1018.1
20260503001435 73 243 0.0 0.0 0.00 0.00 0.00 44 1018.3
20260503000932 73 214 0.0 0.0 0.00 0.00 0.00 42 1018.2
20260503000430 73 230 0.0 0.0 0.00 0.00 0.00 43 1018.1
20260502235927 73 283 0.0 0.0 0.00 0.00 0.00 40 1018.3
20260502235423 73 262 0.0 0.0 0.00 0.00 0.00 40 1018.3
20260502234921 73 257 1.0 1.0 0.00 0.00 0.00 42 1018.0
20260502234417 73 332 0.0 0.0 0.00 0.00 0.00 39 1017.9
20260502233914 74 312 1.0 3.0 0.00 0.00 0.00 40 1018.2
20260502233409 75 258 2.0 3.0 0.00 0.00 0.00 38 1018.2
20260502232907 76 239 0.0 0.0 0.00 0.00 0.00 40 1018.1
20260502232403 75 245 0.0 0.0 0.00 0.00 0.00 40 1018.1
20260502231900 74 204 3.0 3.0 0.00 0.00 0.00 38 1018.2
20260502231358 74 288 0.0 0.0 0.00 0.00 0.00 40 1018.1
20260502230856 75 342 6.0 7.0 0.00 0.00 0.00 38 1018.3
20260502230354 75 303 0.0 0.0 0.00 0.00 0.00 38 1018.2
20260502225850 74 306 0.0 0.0 0.00 0.00 0.00 41 1018.3
20260502225347 74 354 0.0 0.0 0.00 0.00 0.00 39 1018.1
20260502224844 74 27 1.0 2.0 0.00 0.00 0.00 38 1018.3
20260502224340 75 30 2.0 4.0 0.00 0.00 0.00 41 1018.4
20260502223837 76 48 0.0 0.0 0.00 0.00 0.00 41 1018.2
20260502223335 75 292 0.0 0.0 0.00 0.00 0.00 37 1018.4
20260502222833 74 293 0.0 0.0 0.00 0.00 0.00 39 1018.3
20260502222330 74 268 0.0 1.0 0.00 0.00 0.00 39 1018.6
20260502221826 74 10 4.0 4.0 0.00 0.00 0.00 38 1018.4
20260502221322 74 26 4.0 6.0 0.00 0.00 0.00 42 1018.4
20260502220820 75 8 2.0 2.0 0.00 0.00 0.00 39 1018.6
20260502220315 75 262 0.0 0.0 0.00 0.00 0.00 38 1018.6
20260502215812 75 250 0.0 0.0 0.00 0.00 0.00 39 1018.6
20260502215309 74 281 3.0 4.0 0.00 0.00 0.00 42 1018.8
20260502214806 74 13 1.0 2.0 0.00 0.00 0.00 40 1019.0
20260502214303 74 353 3.0 4.0 0.00 0.00 0.00 41 1018.9
20260502213800 74 286 0.0 0.0 0.00 0.00 0.00 38 1018.8
20260502213257 75 256 0.0 0.0 0.00 0.00 0.00 38 1019.4
20260502212756 74 308 1.0 2.0 0.00 0.00 0.00 37 1019.1
20260502212254 74 344 0.0 0.0 0.00 0.00 0.00 37 1019.3
20260502211749 74 9 0.0 1.0 0.00 0.00 0.00 41 1019.2
20260502211247 74 315 4.0 4.0 0.00 0.00 0.00 40 1019.3
20260502210744 73 352 0.0 1.0 0.00 0.00 0.00 43 1019.3
20260502210241 73 29 6.0 7.0 0.00 0.00 0.00 38 1019.3
20260502205738 73 331 6.0 7.0 0.00 0.00 0.00 41 1019.1
20260502205234 73 287 2.0 3.0 0.00 0.00 0.00 41 1019.6
20260502204732 73 15 1.0 4.0 0.00 0.00 0.00 45 1019.4
20260502204229 73 324 7.0 8.0 0.00 0.00 0.00 41 1019.4
20260502203727 73 272 2.0 3.0 0.00 0.00 0.00 39 1019.6
20260502203224 73 311 6.0 7.0 0.00 0.00 0.00 42 1019.5
20260502202718 73 272 0.0 0.0 0.00 0.00 0.00 39 1019.5
20260502202217 73 335 8.0 9.0 0.00 0.00 0.00 39 1019.8
20260502201714 73 355 3.0 6.0 0.00 0.00 0.00 41 1019.6
20260502201210 74 321 2.0 6.0 0.00 0.00 0.00 42 1019.7
20260502200706 75 209 0.0 0.0 0.00 0.00 0.00 42 1019.7
20260502200202 73 261 0.0 0.0 0.00 0.00 0.00 44 1019.9
20260502195701 72 251 0.0 0.0 0.00 0.00 0.00 43 1019.7
20260502195157 73 337 6.0 8.0 0.00 0.00 0.00 43 1019.8
20260502194654 72 324 3.0 4.0 0.00 0.00 0.00 44 1019.9
20260502194150 73 350 7.0 8.0 0.00 0.00 0.00 39 1019.9
20260502193647 73 336 3.0 7.0 0.00 0.00 0.00 43 1019.9
20260502193144 74 226 0.0 1.0 0.00 0.00 0.00 41 1019.9
20260502192639 73 82 0.0 0.0 0.00 0.00 0.00 45 1019.9
20260502192137 72 343 1.0 3.0 0.00 0.00 0.00 44 1020.1
20260502191634 72 32 0.0 0.0 0.00 0.00 0.00 41 1020.0
20260502191131 72 357 4.0 6.0 0.00 0.00 0.00 44 1020.0
20260502190628 72 43 1.0 1.0 0.00 0.00 0.00 44 1020.2
20260502190126 72 342 1.0 3.0 0.00 0.00 0.00 45 1020.1
20260502185621 71 300 0.0 1.0 0.00 0.00 0.00 43 1020.4
20260502185118 72 322 5.0 6.0 0.00 0.00 0.00 43 1020.4
20260502184614 72 73 0.0 0.0 0.00 0.00 0.00 46 1020.3
20260502184109 72 323 4.0 7.0 0.00 0.00 0.00 43 1020.4
20260502183606 72 19 3.0 4.0 0.00 0.00 0.00 44 1020.4
20260502183103 71 318 0.0 0.0 0.00 0.00 0.00 44 1020.4
20260502182557 71 17 5.0 7.0 0.00 0.00 0.00 51 1020.4
20260502182053 71 5 6.0 6.0 0.00 0.00 0.00 46 1020.7
20260502181552 70 2 4.0 6.0 0.00 0.00 0.00 45 1020.7
20260502181050 70 1 4.0 4.0 0.00 0.00 0.00 46 1020.9
20260502180546 71 341 6.0 8.0 0.00 0.00 0.00 45 1020.9
20260502170500 69 314 0.0 1.0 0.00 0.00 0.00 55 1021.6
20260502163944 68 4 2.0 3.0 0.00 0.00 0.00 53 1021.7
20260502163439 67 320 2.0 3.0 0.00 0.00 0.00 57 1021.8
20260502162937 67 359 5.0 6.0 0.00 0.00 0.00 54 1021.5
20260502162434 67 347 4.0 4.0 0.00 0.00 0.00 55 1021.4
20260502161931 67 0 2.0 2.0 0.00 0.00 0.00 57 1021.5
20260502161427 67 329 2.0 3.0 0.00 0.00 0.00 55 1021.7
20260502160925 67 315 0.0 0.0 0.00 0.00 0.00 57 1021.7
20260502160423 66 323 0.0 0.0 0.00 0.00 0.00 52 1021.6
20260502151855 63 326 2.0 6.0 0.00 0.00 0.00 71 1021.1
20260502151351 62 321 6.0 8.0 0.00 0.00 0.00 71 1021.3
20260502150849 62 336 6.0 7.0 0.00 0.00 0.00 73 1021.3
20260502150345 62 336 4.0 6.0 0.00 0.00 0.00 72 1021.1
20260502130734 56 300 1.0 3.0 0.00 0.00 0.00 82 1020.2
20260502130231 55 243 0.0 0.0 0.00 0.00 0.00 82 1020.2
20260502123717 53 246 0.0 0.0 0.00 0.00 0.00 86 1020.0
20260502123214 52 249 0.0 0.0 0.00 0.00 0.00 87 1020.1
20260502122710 52 247 0.0 0.0 0.00 0.00 0.00 88 1020.0
20260502122207 51 263 1.0 1.0 0.00 0.00 0.00 88 1019.9
20260502121705 51 254 0.0 0.0 0.00 0.00 0.00 89 1019.7
20260502121203 51 260 0.0 0.0 0.00 0.00 0.00 89 1019.7
20260502120659 50 252 0.0 0.0 0.00 0.00 0.00 90 1019.6
20260502120156 50 245 0.0 0.0 0.00 0.00 0.00 89 1019.6
20260502115654 51 244 0.0 0.0 0.00 0.00 0.00 89 1019.4
20260502115149 51 249 0.0 0.0 0.00 0.00 0.00 89 1019.3
20260502114646 51 252 0.0 0.0 0.00 0.00 0.00 88 1019.4
20260502114143 51 254 0.0 0.0 0.00 0.00 0.00 87 1019.1
20260502113640 51 253 0.0 0.0 0.00 0.00 0.00 88 1019.0
20260502113139 51 248 0.0 0.0 0.00 0.00 0.00 88 1019.2
20260502112636 50 254 0.0 0.0 0.00 0.00 0.00 89 1018.6
20260502112133 50 261 0.0 0.0 0.00 0.00 0.00 90 1018.6
20260502111631 50 262 0.0 0.0 0.00 0.00 0.00 90 1018.6
20260502111128 50 261 0.0 0.0 0.00 0.00 0.00 89 1018.6
20260502110626 50 269 0.0 0.0 0.00 0.00 0.00 89 1018.6
20260502110123 50 261 0.0 0.0 0.00 0.00 0.00 90 1018.5
20260502105620 50 256 0.0 0.0 0.00 0.00 0.00 90 1018.3
20260502105117 50 256 0.0 0.0 0.00 0.00 0.00 90 1018.4
20260502104614 50 299 0.0 0.0 0.00 0.00 0.00 90 1018.2
20260502104112 50 277 0.0 0.0 0.00 0.00 0.00 90 1018.2
20260502103609 50 308 2.0 3.0 0.00 0.00 0.00 90 1018.2
20260502103108 50 269 0.0 0.0 0.00 0.00 0.00 90 1018.1
20260502102604 50 266 0.0 0.0 0.00 0.00 0.00 91 1018.2
20260502102101 50 264 0.0 0.0 0.00 0.00 0.00 91 1018.1
20260502101559 50 261 0.0 0.0 0.00 0.00 0.00 91 1018.0
20260502101057 50 282 0.0 0.0 0.00 0.00 0.00 91 1018.2
20260502100555 50 251 0.0 0.0 0.00 0.00 0.00 91 1018.4
20260502091529 50 263 0.0 0.0 0.00 0.00 0.00 92 1017.8
20260502091027 50 263 0.0 0.0 0.00 0.00 0.00 91 1017.8
20260502090524 50 263 0.0 0.0 0.00 0.00 0.00 91 1017.8
20260502071418 51 25 0.0 0.0 0.00 0.00 0.00 92 1018.1
20260502070916 51 26 0.0 0.0 0.00 0.00 0.00 92 1018.1
20260502070414 51 27 0.0 0.0 0.00 0.00 0.00 91 1017.8
20260502065912 51 27 0.0 0.0 0.00 0.00 0.00 92 1017.9
20260502065410 51 38 0.0 0.0 0.00 0.00 0.00 92 1017.9
20260502064908 51 38 0.0 0.0 0.00 0.00 0.00 92 1017.9
20260502064406 51 38 0.0 0.0 0.00 0.00 0.00 92 1017.9
20260502063903 51 38 0.0 0.0 0.00 0.00 0.00 92 1018.0
20260502063400 51 38 0.0 0.0 0.00 0.00 0.00 92 1018.3
20260502062858 51 39 0.0 0.0 0.00 0.00 0.00 92 1018.4
20260502062355 51 39 0.0 0.0 0.00 0.00 0.00 92 1018.4
20260502061854 51 39 0.0 0.0 0.00 0.00 0.00 92 1018.3
20260502061351 51 39 0.0 0.0 0.00 0.00 0.00 92 1018.4
20260502060847 51 39 0.0 0.0 0.00 0.00 0.00 92 1018.6
20260502060342 51 38 0.0 0.0 0.00 0.00 0.00 92 1018.4
20260502055840 52 38 0.0 0.0 0.00 0.00 0.00 92 1018.3
20260502055338 52 38 0.0 0.0 0.00 0.00 0.00 92 1018.4
20260502054837 51 38 0.0 0.0 0.00 0.00 0.00 93 1018.4
20260502054334 51 40 0.0 0.0 0.00 0.00 0.00 93 1018.3
20260502053831 51 40 0.0 0.0 0.00 0.00 0.00 93 1018.3
20260502053329 51 40 0.0 0.0 0.00 0.00 0.00 93 1018.3
20260502052826 51 40 0.0 0.0 0.00 0.00 0.00 93 1018.5
20260502052324 51 40 0.0 0.0 0.00 0.00 0.00 92 1018.2
20260502051821 52 40 0.0 0.0 0.00 0.00 0.00 93 1018.2
20260502051320 52 40 0.0 0.0 0.00 0.00 0.00 92 1018.1
20260502050816 52 40 0.0 0.0 0.00 0.00 0.00 93 1018.3
20260502050313 53 40 0.0 0.0 0.00 0.00 0.00 93 1018.3
20260502045810 52 40 0.0 0.0 0.00 0.08 0.08 93 1018.2
20260502045306 52 40 0.0 0.0 0.00 0.08 0.08 93 1018.0
20260502044804 52 40 0.0 0.0 0.00 0.08 0.08 93 1018.0
20260502044259 52 40 0.0 0.0 0.00 0.08 0.08 92 1017.9
20260502043757 52 40 0.0 0.0 0.00 0.08 0.08 92 1018.3
20260502043254 52 40 0.0 0.0 0.00 0.08 0.08 92 1018.1
20260502042753 52 40 0.0 0.0 0.00 0.08 0.08 92 1018.1
20260502042251 52 40 0.0 0.0 0.00 0.08 0.08 92 1018.4
20260502041749 53 40 0.0 0.0 0.00 0.08 0.08 92 1018.3
20260502041246 53 40 0.0 0.0 0.00 0.08 0.08 92 1018.0
20260502040743 53 40 0.0 0.0 0.00 0.08 0.08 92 1018.3
20260502040239 53 40 0.0 0.0 0.00 0.08 0.08 91 1018.1
20260502035735 53 40 0.0 0.0 0.00 0.08 0.08 91 1018.1
20260502035232 53 40 0.0 0.0 0.00 0.08 0.08 90 1018.2
20260502034730 53 40 0.0 0.0 0.00 0.08 0.08 90 1017.9
20260502034228 53 40 0.0 0.0 0.00 0.08 0.08 90 1018.2
20260502033726 53 40 0.0 0.0 0.00 0.08 0.08 89 1018.0
20260502033223 54 40 0.0 0.0 0.00 0.08 0.08 89 1017.9
20260502032720 54 40 0.0 0.0 0.00 0.08 0.08 88 1017.9
20260502032215 55 40 0.0 0.0 0.00 0.08 0.08 87 1017.9
20260502031714 55 40 0.0 0.0 0.00 0.08 0.08 86 1017.9
20260502031212 55 40 0.0 0.0 0.00 0.08 0.08 85 1017.6
20260502030710 56 40 0.0 0.0 0.00 0.08 0.08 85 1017.9
20260502030208 56 40 0.0 0.0 0.00 0.08 0.08 84 1017.5
20260502025704 56 40 0.0 0.0 0.00 0.08 0.08 84 1017.6